Weather reports worldwide

Advertisment
Brize Norton, United Kingdom (3649): temperature & dewpoint: 11.10.2018 07:00:00 - 17.10.2018 07:00:00 (BST)Brize Norton, United Kingdom (3649): temperature -20cm & temperature -100cm: 11.10.2018 07:00:00 - 17.10.2018 07:00:00 (BST)Brize Norton, United Kingdom (3649): wind speed & gusts: 11.10.2018 07:00:00 - 17.10.2018 07:00:00 (BST)Brize Norton, United Kingdom (3649): wind direction: 11.10.2018 07:00:00 - 17.10.2018 07:00:00 (BST)Brize Norton, United Kingdom (3649): reduced air pressure: 11.10.2018 07:00:00 - 17.10.2018 07:00:00 (BST)Brize Norton, United Kingdom (3649): visibility: 11.10.2018 07:00:00 - 17.10.2018 07:00:00 (BST)Brize Norton, United Kingdom (3649): sunshine duration: 11.10.2018 07:00:00 - 17.10.2018 07:00:00 (BST)Brize Norton, United Kingdom (3649): precipitation: 11.10.2018 07:00:00 - 17.10.2018 07:00:00 (BST)
Date & Time tt [°C] td [°C] tt -20cm [°C] tt -100cm [°C] ff [km/h] ff [kn] fx [km/h] fx [kn] dd ppp [hPa] vv [km] sd [min] rr [mm]
17.10.2018 07:00:00 12,3 12,0 - - 4 2 - - SW 1017,1 10 0 0,0
17.10.2018 06:00:00 11,9 11,7 - - 4 2 - - W 1017,0 10 0 0,0
17.10.2018 05:00:00 11,7 11,5 - - 5 3 - - SW 1016,7 10 0 0,0
17.10.2018 04:00:00 11,8 11,0 - - 8 4 - - SW 1016,6 10 0 0,0
17.10.2018 03:00:00 11,9 10,5 - - 8 4 - - SW 1016,5 10 0 0,0
17.10.2018 02:00:00 11,6 10,4 - - 8 4 - - SW 1016,5 10 0 0,0
17.10.2018 01:00:00 11,3 10,4 - - 8 4 - - SSW 1016,9 10 - 0,0
17.10.2018 00:00:00 11,6 10,6 - - 8 4 - - SSW 1016,8 10 0 0,0
16.10.2018 23:00:00 12,0 10,5 - - 5 3 - - SSW 1016,8 10 0 0,0
16.10.2018 22:00:00 12,8 10,9 - - 8 4 - - SSW 1016,6 10 0 0,0
16.10.2018 21:00:00 13,1 11,2 - - 5 3 - - SW 1016,4 10 0 0,0
16.10.2018 20:00:00 13,7 11,3 - - 8 4 - - SSW 1016,1 10 0 0,0
16.10.2018 19:00:00 14,5 11,8 - - 11 6 - - SW 1015,7 10 0 0,0
16.10.2018 18:00:00 15,6 13,4 - - 9 5 - - SSW 1015,2 10 0 0,0
16.10.2018 17:00:00 15,7 13,7 - - 9 5 - - SW 1015,0 10 0 0,0
16.10.2018 16:00:00 16,2 14,9 - - 5 3 - - SSW 1015,0 8 0 0,0
16.10.2018 15:00:00 15,8 15,0 - - 8 4 - - SSW 1015,1 5 0 0,0
16.10.2018 14:00:00 14,5 14,4 - - 8 4 - - S 1015,3 3,5 0 0,2
16.10.2018 13:00:00 14,2 14,1 - - 4 2 - - SSW 1015,4 2,0 0 0,0
16.10.2018 12:00:00 13,9 13,8 - - 4 2 - - W 1015,6 4,0 0 0,0
16.10.2018 11:00:00 13,4 13,4 - - 9 5 - - S 1015,2 3,0 0 0,0
16.10.2018 10:00:00 12,7 12,6 13,9 14,2 4 2 - - SSE 1015,4 1,0 0 0,0
16.10.2018 09:00:00 12,1 12,1 - - 2 1 - - N 1015,6 0,7 0 0,0
16.10.2018 08:00:00 12,1 12,1 - - 4 2 - - NNW 1015,6 0,7 0 0,2
16.10.2018 07:00:00 12,2 12,2 - - 4 2 - - WNW 1015,2 2,2 0 0,0
16.10.2018 06:00:00 12,0 12,0 - - 4 2 - - SSE 1014,8 2,2 0 0,0
16.10.2018 05:00:00 11,9 11,9 - - 2 1 - - SSE 1014,3 1,5 0 0,0
16.10.2018 04:00:00 11,9 11,8 - - 4 2 - - ESE 1014,5 1,2 0 0,2
16.10.2018 03:00:00 11,7 11,6 - - 2 1 - - ENE 1014,9 0,8 0 0,0
16.10.2018 02:00:00 11,5 11,5 - - 5 3 - - E 1015,0 0,5 0 0,0
16.10.2018 01:00:00 11,4 11,4 - - 11 6 - - E 1014,8 0,5 - 0,0
16.10.2018 00:00:00 11,4 11,3 - - 9 5 - - ENE 1015,3 0,8 0 0,0
15.10.2018 23:00:00 11,4 11,3 - - 9 5 - - ENE 1015,2 2,5 0 0,0
15.10.2018 22:00:00 11,4 11,2 - - 9 5 - - E 1014,8 5 0 0,0
15.10.2018 21:00:00 11,4 11,1 - - 13 7 - - E 1014,5 10 0 0,0
15.10.2018 20:00:00 11,4 11,0 - - 16 9 - - E 1014,2 10 0 0,0
15.10.2018 19:00:00 11,2 11,0 - - 15 8 - - ENE 1014,1 4,5 0 0,2
15.10.2018 18:00:00 11,3 10,9 - - 15 8 - - NE 1013,9 2,2 0 0,0
15.10.2018 17:00:00 11,5 10,7 - - 18 10 - - ENE 1013,4 8 0 0,0
15.10.2018 16:00:00 11,7 10,8 - - 15 8 - - ENE 1012,8 10 0 0,0
15.10.2018 15:00:00 11,7 10,8 - - 22 12 - - ENE 1012,5 10 0 0,0
15.10.2018 14:00:00 11,2 11,0 - - 18 10 - - NE 1012,5 3,7 0 0,4
15.10.2018 13:00:00 10,7 10,5 - - 16 9 - - NE 1012,5 1,8 0 0,2
15.10.2018 12:00:00 10,5 10,1 - - 16 9 - - NE 1012,1 4,0 0 0,0
15.10.2018 11:00:00 10,1 9,7 - - 18 10 - - NNE 1011,5 3,7 0 0,2
15.10.2018 10:00:00 9,9 9,5 14,0 14,2 22 12 - - NE 1011,1 4,0 0 0,0
15.10.2018 09:00:00 9,7 9,2 - - 21 11 - - NNE 1010,6 4,0 0 0,0
15.10.2018 08:00:00 9,5 9,3 - - 18 10 - - NNE 1010,1 3,5 0 0,0
15.10.2018 07:00:00 9,5 9,3 - - 16 9 - - NE 1009,9 3,0 0 0,2
15.10.2018 06:00:00 9,5 9,0 - - 18 10 - - NNE 1009,4 4,0 0 0,0
15.10.2018 05:00:00 9,5 8,8 - - 21 11 - - NNE 1008,8 20 0 0,0
15.10.2018 04:00:00 9,2 8,7 - - 28 15 - - NNE 1008,5 7 0 0,4
15.10.2018 03:00:00 9,3 8,6 - - 16 9 - - NNE 1010,2 9 0 0,0
15.10.2018 02:00:00 9,1 8,3 - - 18 10 - - NE 1009,9 10 0 0,0
15.10.2018 01:00:00 9,0 8,2 - - 16 9 - - NE 1010,1 10 - 0,2
15.10.2018 00:00:00 9,0 8,0 - - 22 12 - - NE 1009,9 10 0 0,2
14.10.2018 23:00:00 8,9 7,7 - - 18 10 - - NE 1010,1 10 0 0,0
14.10.2018 22:00:00 8,8 7,6 - - 16 9 - - NNE 1010,0 10 0 0,0
14.10.2018 21:00:00 8,5 7,4 - - 18 10 - - NE 1010,2 10 0 0,0
14.10.2018 20:00:00 8,2 7,5 - - 22 12 - - NE 1010,0 5 0 0,4
14.10.2018 19:00:00 8,7 6,9 - - 24 13 - - NE 1009,9 5 0 0,0
14.10.2018 18:00:00 9,2 6,8 - - 22 12 - - NNE 1009,2 10 0 0,0
14.10.2018 17:00:00 9,9 7,7 - - 24 13 - - NE 1008,4 10 0 0,0
14.10.2018 16:00:00 9,8 8,2 - - 21 11 - - NNE 1008,1 10 0 0,0
14.10.2018 15:00:00 9,9 8,2 - - 26 14 - - NNE 1007,4 10 0 0,0
14.10.2018 14:00:00 10,0 8,7 - - 26 14 - - N 1007,3 10 0 1,0
14.10.2018 13:00:00 10,5 9,6 - - 21 11 - - N 1007,8 8 0 0,6
14.10.2018 12:00:00 11,0 9,9 - - 24 13 - - N 1006,7 10 0 1,4
14.10.2018 11:00:00 11,1 10,6 - - 18 10 - - N 1007,3 5 0 4,0
14.10.2018 10:00:00 11,2 10,7 14,7 14,0 15 8 - - NNW 1007,5 5 0 3,2
14.10.2018 09:00:00 11,2 10,8 - - 11 6 - - N 1006,3 5 0 4,2
14.10.2018 08:00:00 12,0 11,3 - - 11 6 - - NNW 1006,0 5 0 2,4
14.10.2018 07:00:00 12,5 12,0 - - 8 4 - - NW 1005,3 6 0 2,4
14.10.2018 06:00:00 12,8 12,3 - - 4 2 - - W 1006,3 6 0 1,4
14.10.2018 05:00:00 13,0 12,2 - - 8 4 - - W 1006,4 10 0 0,6
14.10.2018 04:00:00 13,2 11,8 - - 4 2 - - WSW 1006,5 10 0 0,0
14.10.2018 03:00:00 13,4 11,8 - - 8 4 - - SSW 1006,7 10 0 0,0
14.10.2018 02:00:00 14,5 13,0 - - 13 7 - - SSW 1006,4 10 0 0,0
14.10.2018 01:00:00 15,4 14,4 - - 13 7 - - SSW 1005,9 10 - 1,0
14.10.2018 00:00:00 16,2 14,0 - - 16 9 - - SSW 1006,4 4,0 0 0,2
13.10.2018 23:00:00 17,7 14,3 - - 21 11 - - SSW 1006,3 10 0 0,0
13.10.2018 22:00:00 18,3 15,5 - - 21 11 - - SSW 1006,2 10 0 0,0
13.10.2018 21:00:00 18,8 15,6 - - 15 8 - - S 1006,1 10 0 0,0
13.10.2018 20:00:00 19,6 15,2 - - 24 13 48 26 SSW 1005,9 30 0 0,0
13.10.2018 19:00:00 19,7 15,5 - - 26 14 48 26 SSW 1005,5 10 0 0,0
13.10.2018 18:00:00 20,6 15,2 - - 29 16 52 28 SSW 1004,8 10 0 0,0
13.10.2018 17:00:00 21,1 15,1 - - 31 17 63 34 SSW 1004,6 10 12 0,0
13.10.2018 16:00:00 22,4 15,1 - - 29 16 61 33 S 1004,7 10 36 0,0
13.10.2018 15:00:00 21,9 14,8 - - 29 16 61 33 S 1005,2 10 60 0,0
13.10.2018 14:00:00 22,3 14,8 - - 31 17 54 29 S 1005,8 10 60 0,0
13.10.2018 13:00:00 21,9 14,5 - - 28 15 48 26 S 1006,3 10 54 0,0
13.10.2018 12:00:00 21,6 15,8 - - 31 17 54 29 S 1007,0 10 30 0,0
13.10.2018 11:00:00 19,2 16,5 - - 37 20 65 35 SSW 1008,0 13 6 0,0
13.10.2018 10:00:00 18,6 16,1 14,2 14,0 31 17 57 31 S 1008,5 10 0 0,0
13.10.2018 09:00:00 18,6 15,4 - - 28 15 54 29 S 1008,1 10 0 0,0
13.10.2018 08:00:00 17,8 14,8 - - 22 12 - - S 1007,9 10 0 0,0
13.10.2018 07:00:00 18,4 15,8 - - 28 15 52 28 S 1007,6 35 0 0,0
13.10.2018 06:00:00 17,2 16,1 - - 24 13 46 25 S 1007,8 10 0 0,0
13.10.2018 05:00:00 17,1 16,4 - - 18 10 - - S 1008,2 10 0 0,2
13.10.2018 04:00:00 17,2 16,2 - - 24 13 - - S 1008,3 6 0 0,0
13.10.2018 03:00:00 17,1 16,2 - - 24 13 - - S 1008,6 10 0 0,0
13.10.2018 02:00:00 17,7 16,4 - - 24 13 - - S 1008,8 9 0 0,0
13.10.2018 01:00:00 17,8 16,3 - - 24 13 46 25 SSW 1008,5 10 - 0,0
13.10.2018 00:00:00 18,4 16,1 - - 24 13 46 25 SSW 1008,9 20 0 0,0
12.10.2018 23:00:00 18,5 15,9 - - 28 15 54 29 SSW 1008,8 10 0 0,0
12.10.2018 22:00:00 18,7 15,3 - - 31 17 50 27 SSW 1008,3 10 0 0,0
12.10.2018 21:00:00 18,8 14,9 - - 34 18 55 30 SSW 1007,8 10 0 0,0
12.10.2018 20:00:00 18,6 14,7 - - 31 17 61 33 SSW 1007,8 30 0 0,0
12.10.2018 19:00:00 18,4 14,8 - - 34 18 59 32 SSW 1007,6 10 0 0,0
12.10.2018 18:00:00 18,5 14,8 - - 34 18 65 35 SSW 1007,1 10 0 0,0
12.10.2018 17:00:00 18,9 14,3 - - 34 18 59 32 SSW 1006,2 10 0 0,0
12.10.2018 16:00:00 18,3 13,9 - - 34 18 65 35 SSW 1006,5 10 0 0,0
12.10.2018 15:00:00 17,7 13,6 - - 31 17 70 38 SSW 1006,6 10 0 0,0
12.10.2018 14:00:00 18,0 12,9 - - 35 19 61 33 S 1006,1 10 0 0,0
12.10.2018 13:00:00 16,3 13,4 - - 34 18 59 32 S 1006,8 10 0 1,4
12.10.2018 12:00:00 15,8 13,5 - - 29 16 55 30 S 1007,0 5 0 0,6
12.10.2018 11:00:00 15,9 13,6 - - 26 14 57 31 S 1007,1 10 0 0,2
12.10.2018 10:00:00 15,7 13,6 13,9 14,0 31 17 59 32 SSW 1006,7 10 0 0,0
12.10.2018 09:00:00 15,4 13,0 - - 29 16 52 28 SSW 1006,2 10 0 0,2
12.10.2018 08:00:00 15,3 12,5 - - 28 15 52 28 SSW 1006,2 10 0 0,0
12.10.2018 07:00:00 14,8 12,3 - - 26 14 55 30 S 1005,5 10 0 0,4
12.10.2018 06:00:00 14,6 12,1 - - 24 13 - - S 1005,6 10 0 0,4
12.10.2018 05:00:00 14,3 11,6 - - 22 12 - - S 1005,6 10 0 0,0
12.10.2018 04:00:00 13,2 10,7 - - 11 6 - - S 1006,1 10 0 0,0
12.10.2018 03:00:00 13,1 10,6 - - 16 9 - - SSW 1006,3 10 0 0,0
12.10.2018 02:00:00 13,3 10,8 - - 16 9 - - SSW 1006,4 10 0 0,0
12.10.2018 01:00:00 13,0 11,4 - - 15 8 46 25 SSW 1006,2 10 - 0,0
12.10.2018 00:00:00 11,9 11,0 - - 8 4 - - S 1006,1 10 0 0,0
11.10.2018 23:00:00 12,2 10,7 - - 5 3 - - S 1006,0 10 0 0,0
11.10.2018 22:00:00 13,3 11,3 - - 9 5 - - SSW 1005,7 10 0 0,0
11.10.2018 21:00:00 14,4 11,5 - - 16 9 - - SSW 1004,7 10 0 0,0
11.10.2018 20:00:00 14,9 11,8 - - 18 10 - - SSW 1004,1 10 0 0,0
11.10.2018 19:00:00 15,9 11,7 - - 22 12 50 27 SSW 1003,5 10 0 0,0
11.10.2018 18:00:00 17,5 13,3 - - 18 10 - - S 1002,8 10 0 0,0
11.10.2018 17:00:00 18,2 13,2 - - 21 11 - - S 1001,9 30 0 0,0
11.10.2018 16:00:00 18,3 13,1 - - 21 11 - - S 1001,7 10 0 0,0
11.10.2018 15:00:00 18,9 13,4 - - 22 12 - - S 1001,1 10 30 0,0
11.10.2018 14:00:00 18,0 13,5 - - 21 11 48 26 SSE 1001,3 10 0 0,0
11.10.2018 13:00:00 18,2 12,8 - - 22 12 - - SSE 1001,1 10 0 0,0
11.10.2018 12:00:00 17,7 12,4 - - 21 11 - - S 1002,1 10 24 0,0
11.10.2018 11:00:00 16,9 12,9 - - 16 9 - - S 1002,3 10 0 0,0
11.10.2018 10:00:00 16,3 13,0 13,7 14,0 15 8 - - S 1002,3 10 30 0,0
11.10.2018 09:00:00 15,4 13,0 - - 11 6 - - S 1002,5 10 12 0,0
11.10.2018 08:00:00 14,3 12,1 - - 11 6 - - SSE 1002,0 10 0 0,0
11.10.2018 07:00:00 14,0 13,1 - - 8 4 - - SE 1001,7 10 0 0,0

tt = temperature
td = dewpoint
tt -20cm = temperature -20cm
tt -100cm = temperature -100cm
ff = wind speed
fx = gusts
dd = wind direction
ppp = reduced air pressure
vv = visibility
sd = sunshine duration
rr = precipitation

Next stations